Location: Arthez
(43.0833°N, 0.2500°W)
Time: 00:42:00
(UTC+00:00)

COSMO-SKYMED 1 - Pass Details

Date: 23 October 2021
Orbit: 621 x 623 km, 97.9° (Epoch: 06 December)

Event Time Altitude Azimuth Distance (km) Brightness Sun altitude
Rises 17:33:37 0° 21° (NNE) 2,913 5.7 -5.8°
Reaches altitude 10° 17:35:59 10° 30° (NNE) 2,001 4.8 -6.3°
Maximum altitude 17:39:59 36° 97° (E) 998 3.2 -7.0°
Drops below altitude 10° 17:43:58 10° 164° (SSE) 1,986 5.1 -7.7°
Sets 17:46:18 0° 173° (S) 2,886 6.0 -8.1°
